This demonstration page uses our WeatherBlox Daily Observations layout. Learn more.

Left ArrowRight Arrow

47.50024, -111.30081

Hourly Observations for May 27, 2019

Temp ( °F °C ) Dew Point ( °F °C ) Humidity (%) Winds ( mph kmh ) Pressure ( in mb ) Visibility ( mi km ) Precip ( " mm )
12:08 am 00:08 Cloudy with Light Rain 48 8.9 48 8.9 100 100 NE 10 17 29.99 1016 8 13 0.00 0.03
12:53 am 00:53 Cloudy with Light Rain 48 8.9 48 8.9 100 100 NE 10 17 30.02 1017 9 14 0.01 0.25
1:53 am 01:53 Cloudy 48 8.9 48 8.9 100 100 ENE 12 19 30.01 1016 9 14 0.00 0.03
2:27 am 02:27 Cloudy 48 8.9 48 8.9 100 100 NE 8 13 29.97 1015 8 13 0.00 0.00
2:53 am 02:53 Cloudy with Light Rain 48 8.9 48 8.9 100 100 NE 8 13 30.01 1016 8 13 0.00 0.03
3:07 am 03:07 Cloudy with Light Rain 48 8.9 48 8.9 100 100 NE 9 15 29.98 1015 7 11 0.00 0.03
3:22 am 03:22 Cloudy with Light Rain 48 8.9 48 8.9 100 100 NE 10 17 29.98 1015 7 11 0.00 0.03
3:33 am 03:33 Cloudy with Light Rain 48 8.9 48 8.9 100 100 NE 10 17 29.98 1015 6 10 0.00 0.03
3:53 am 03:53 Cloudy with Light Rain 48 8.9 48 8.9 100 100 NE 8 13 30.01 1016 5 8 0.01 0.25
4:23 am 04:23 Cloudy with Light Rain 48 8.9 48 8.9 100 100 NNE 9 15 29.97 1015 5 8 0.00 0.03
4:35 am 04:35 Cloudy with Light Rain 47 8.3 47 8.3 100 100 NNE 10 17 29.98 1015 6 10 0.00 0.03
4:53 am 04:53 Cloudy with Mist and Fog 47 8.3 47 8.3 100 100 NE 10 17 30.02 1017 6 10 0.00 0.03
5:18 am 05:18 Mostly Cloudy with Mist and Fog 46 7.8 46 7.8 100 100 NE 13 20 29.99 1015 5 8 0.00 0.00
5:31 am 05:31 Cloudy with Mist and Fog 46 7.8 46 7.8 100 100 NE 12 19 30.00 1016 6 10 0.00 0.00
5:53 am 05:53 Cloudy with Mist and Fog 46 7.8 46 7.8 100 100 NE 13 20 30.03 1017 6 10 0.00 0.00
6:23 am 06:23 Cloudy with Mist and Fog 46 7.8 46 7.8 100 100 NE 13 20 30.00 1016 5 8 0.00 0.00
6:53 am 06:53 Cloudy with Mist and Fog 46 7.8 45 7.2 96 96 NE 14 22 30.03 1017 4 6 0.00 0.00
7:01 am 07:01 Cloudy with Mist and Fog 46 7.8 45 7.2 96 96 NE 14 22 30.00 1016 4 6 0.00 0.00
7:53 am 07:53 Cloudy with Light Rain 45 7.2 45 7.2 100 100 NE 15 24 30.04 1017 4 6 0.00 0.03
8:16 am 08:16 Cloudy with Light Rain 45 7.2 45 7.2 100 100 NE 12 19 30.01 1016 3 4 0.00 0.03
8:24 am 08:24 Cloudy with Light Rain 45 7.2 45 7.2 100 100 NE 10 17 30.01 1016 3 4 0.00 0.03
8:53 am 08:53 Cloudy with Light Rain 45 7.2 45 7.2 100 100 NE 10 17 30.04 1017 2 3 0.01 0.25
9:41 am 09:41 Cloudy with Light Rain 45 7.2 45 7.2 100 100 NE 12 19 30.01 1016 2 3 0.02 0.51
9:53 am 09:53 Cloudy with Light Rain 45 7.2 45 7.2 100 100 NE 12 19 30.03 1017 2 3 0.03 0.76
10:53 am 10:53 Cloudy with Light Rain 45 7.2 45 7.2 100 100 NNE 13 20 30.04 1017 4 6 0.06 1.52
11:14 am 11:14 Cloudy with Rain 45 7.2 45 7.2 100 100 NE 10 17 30.02 1016 3 4 0.05 1.27
11:26 am 11:26 Cloudy with Rain 45 7.2 45 7.2 100 100 NE 10 17 30.02 1016 2 3 0.09 2.29
11:53 am 11:53 Cloudy with Light Rain 46 7.8 46 7.8 100 100 NE 12 19 30.04 1017 3 4 0.14 3.56
12:12 pm 12:12 Cloudy with Light Rain 46 7.8 46 7.8 100 100 NE 10 17 30.00 1016 3 5 0.02 0.51
12:53 pm 12:53 Cloudy with Light Rain 47 8.3 47 8.3 100 100 NNE 10 17 30.03 1017 3 5 0.08 2.03
1:33 pm 13:33 Cloudy with Light Rain 48 8.9 48 8.9 100 100 NE 10 17 29.99 1016 3 5 0.04 1.02
1:41 pm 13:41 Cloudy with Light Rain 48 8.9 47 8.3 96 96 NNE 10 17 29.99 1016 3 5 0.04 1.02
1:53 pm 13:53 Cloudy with Light Rain 48 8.9 48 8.9 100 100 NNE 10 17 30.03 1017 3 4 0.04 1.02
2:08 pm 14:08 Cloudy with Light Rain 48 8.9 48 8.9 100 100 NE 9 15 29.98 1015 2 3 0.02 0.51
2:17 pm 14:17 Cloudy with Light Rain 48 8.9 48 8.9 100 100 NNE 10 17 29.99 1016 2 3 0.03 0.76
2:25 pm 14:25 Cloudy with Light Rain 48 8.9 48 8.9 100 100 NE 9 15 29.99 1016 2 3 0.03 0.76
2:53 pm 14:53 Cloudy with Light Rain 49 9.4 49 9.4 100 100 NNE 12 19 30.02 1017 4 6 0.04 1.02
3:14 pm 15:14 Cloudy with Light Rain 49 9.4 49 9.4 100 100 NNE 13 20 29.97 1015 3 4 0.01 0.25
3:53 pm 15:53 Cloudy with Light Rain 49 9.4 48 8.9 97 97 N 12 19 30.03 1017 3 5 0.01 0.25
4:53 pm 16:53 Cloudy with Mist and Fog 49 9.4 48 8.9 97 97 N 12 19 30.03 1017 6 10 0.01 0.25
5:11 pm 17:11 Cloudy with Mist and Fog 49 9.4 48 8.9 97 97 NNE 9 15 29.97 1015 6 10 0.00 0.00
5:18 pm 17:18 Cloudy with Mist and Fog 49 9.4 48 8.9 97 97 N 9 15 29.97 1015 5 8 0.00 0.00
5:39 pm 17:39 Cloudy with Mist and Fog 49 9.4 49 9.4 100 100 NNE 7 11 29.97 1015 5 8 0.00 0.00
5:51 pm 17:51 Cloudy with Mist and Fog 48 9 48 9 100 100 N 8 13 29.98 1015 5 8 0.00 0.00
5:53 pm 17:53 Cloudy with Mist and Fog 49 9.4 48 8.9 97 97 N 8 13 30.02 1017 5 8 0.00 0.00
6:25 pm 18:25 Cloudy with Mist and Fog 49 9.4 48 8.9 97 97 N 6 9 29.97 1015 6 10 0.00 0.00
6:50 pm 18:50 Cloudy with Mist and Fog 48 9 48 9 100 100 N 7 11 29.98 1015 6 10 0.00 0.00
6:53 pm 18:53 Cloudy with Mist and Fog 49 9.4 48 8.9 97 97 NNW 7 11 30.02 1017 6 10 0.00 0.00
7:00 pm 19:00 Cloudy with Mist and Fog 49 9.4 48 8.9 97 97 N 7 11 29.97 1015 6 10 0.00 0.00
7:35 pm 19:35 Cloudy with Mist and Fog 49 9.4 48 8.9 97 97 N 7 11 29.97 1015 6 10 0.00 0.03
7:53 pm 19:53 Cloudy with Mist and Fog 49 9.4 48 8.9 97 97 NNW 6 9 30.04 1017 5 8 0.00 0.03
8:17 pm 20:17 Cloudy with Light Rain 49 9.4 48 8.9 97 97 NNW 5 7 29.98 1015 5 8 0.00 0.03
8:36 pm 20:36 Cloudy with Light Rain 48 8.9 48 8.9 100 100 NNW 6 9 29.99 1016 2 3 0.00 0.03
8:46 pm 20:46 Cloudy with Light Rain 48 8.9 48 8.9 100 100 NNW 3 6 29.99 1016 2 3 0.01 0.25
8:53 pm 20:53 Cloudy with Light Rain 48 8.9 48 8.9 100 100 NNW 3 6 30.04 1017 2 3 0.01 0.25
9:42 pm 21:42 Cloudy with Light Rain 48 8.9 48 8.9 100 100 Calm 29.99 1016 2 3 0.02 0.51
9:49 pm 21:49 Cloudy with Light Rain 48 9 48 9 100 100 Calm 29.99 1016 2 3 0.02 0.51
9:53 pm 21:53 Cloudy with Light Rain 48 8.9 48 8.9 100 100 Calm 30.05 1018 3 5 0.02 0.51
10:53 pm 22:53 Cloudy with Mist and Fog 48 8.9 48 8.9 100 100 W 3 6 30.04 1017 4 6 0.00 0.03
11:53 pm 23:53 Cloudy with Mist and Fog 47 8.3 47 8.3 100 100 W 3 6 30.04 1017 6 10 0.00 0.00

Powered by AerisWeather